Weather History for Norfolk Hampton Roads Executi, VA

Change the Weather History Date:

Saturday, January 18, 2014

  Actual Average (KNGU) Record (KNGU)
Temperature  
Mean Temperature 34 °F -  
Max Temperature 48 °F 44 °F 69 °F (2006)
Min Temperature 19 °F 30 °F 16 °F (1997)
Degree Days  
Heating Degree Days 32    
Moisture  
Dew Point 24 °F    
Average Humidity 64    
Maximum Humidity 87    
Minimum Humidity 36    
Precipitation  
Precipitation 0.00 in - - ()
Sea Level Pressure  
Sea Level Pressure 29.94 in    
Wind  
Wind Speed 7 mph (West)    
Max Wind Speed 18 mph    
Max Gust Speed 25 mph    
Visibility 10 miles    
Events      
Averages and records for this station are not official NWS values.
T = Trace of Precipitation, MM = Missing Value Source: NWS Daily Summary

Daily Weather History Graph

Daily Weather History Graph

Search for Another Location

Airport:

Trip Planner

Search our weather history database for the weather conditions in past years. The results will help you decide how hot, cold, wet, or windy it might be!

Date:

Astronomy

Jan. 18, 2014 Rise Set
Actual Time 7:16 AM EST 5:16 PM EST
Civil Twilight 6:48 AM EST 5:44 PM EST
Nautical Twilight 6:16 AM EST 6:16 PM EST
Astronomical Twilight 5:45 AM EST 6:47 PM EST
Moon 7:51 PM EST (1/18) 8:19 AM EST (1/18)
Length of Visible Light 10h 56m
Length of Day
9h 59m
Waning Gibbous, 94% of the Moon is Illuminated
Jan 18
Waning Gibbous
Jan 24
Last Quarter
Jan 30
New
Feb 6
First Quarter
Feb 14
Full

Hourly Weather History & Observations

Time (EST) Temp. Windchill Dew Point Humidity Pressure Visibility Wind Dir Wind Speed Gust Speed Precip Events Conditions
12:15 AM 48.2 °F - 37.4 °F 66% 29.87 in 10.0 mi SSW 4.6 mph - N/A   Overcast
12:35 AM 46.4 °F 42.9 °F 37.4 °F 71% 29.86 in 10.0 mi South 6.9 mph - N/A   Overcast
12:55 AM 46.4 °F 43.5 °F 37.4 °F 71% 29.84 in 10.0 mi SSW 5.8 mph - N/A   Mostly Cloudy
1:15 AM 48.2 °F - 37.4 °F 66% 29.83 in 10.0 mi SSW 4.6 mph - N/A   Mostly Cloudy
1:35 AM 46.4 °F 43.5 °F 37.4 °F 71% 29.83 in 10.0 mi South 5.8 mph - N/A   Overcast
1:55 AM 46.4 °F 42.4 °F 37.4 °F 71% 29.83 in 10.0 mi SW 8.1 mph 16.1 mph N/A   Overcast
2:15 AM 46.4 °F 44.3 °F 39.2 °F 76% 29.84 in 10.0 mi SW 4.6 mph - N/A   Mostly Cloudy
2:35 AM 44.6 °F 39.7 °F 39.2 °F 81% 29.83 in 10.0 mi West 9.2 mph - N/A   Overcast
2:55 AM 44.6 °F 41.4 °F 39.2 °F 81% 29.82 in 10.0 mi West 5.8 mph - N/A   Partly Cloudy
3:15 AM 44.6 °F 41.4 °F 39.2 °F 81% 29.83 in 10.0 mi West 5.8 mph - N/A   Mostly Cloudy
3:35 AM 44.6 °F - 39.2 °F 81% 29.81 in 10.0 mi Calm Calm - N/A   Mostly Cloudy
3:55 AM 42.8 °F - 39.2 °F 87% 29.79 in 10.0 mi Calm Calm - N/A   Scattered Clouds
4:15 AM 41.0 °F - 37.4 °F 87% 29.79 in 10.0 mi Calm Calm - N/A   Partly Cloudy
4:35 AM 41.0 °F 38.0 °F 37.4 °F 87% 29.79 in 10.0 mi SW 4.6 mph - N/A   Mostly Cloudy
4:55 AM 39.2 °F 34.2 °F 35.6 °F 87% 29.79 in 10.0 mi SW 6.9 mph - N/A   Scattered Clouds
5:15 AM 39.2 °F 33.6 °F 35.6 °F 87% 29.80 in 10.0 mi West 8.1 mph - N/A   Clear
5:35 AM 39.2 °F 32.5 °F 35.6 °F 87% 29.81 in 10.0 mi WNW 10.4 mph 18.4 mph N/A   Clear
5:55 AM 37.4 °F 29.8 °F 33.8 °F 87% 29.82 in 10.0 mi WNW 11.5 mph 21.9 mph N/A   Clear
6:15 AM 37.4 °F 31.4 °F 30.2 °F 75% 29.83 in 10.0 mi WNW 8.1 mph 17.3 mph N/A   Clear
6:35 AM 35.6 °F 28.6 °F 30.2 °F 81% 29.84 in 10.0 mi WNW 9.2 mph - N/A   Clear
6:55 AM 35.6 °F 30.7 °F 30.2 °F 81% 29.84 in 10.0 mi WNW 5.8 mph - N/A   Clear
7:15 AM 35.6 °F 29.2 °F 28.4 °F 75% 29.85 in 10.0 mi WNW 8.1 mph - N/A   Clear
7:35 AM 35.6 °F 30.7 °F 28.4 °F 75% 29.87 in 10.0 mi WNW 5.8 mph - N/A   Clear
7:55 AM 35.6 °F 31.7 °F 30.2 °F 81% 29.87 in 10.0 mi West 4.6 mph - N/A   Mostly Cloudy
8:15 AM 35.6 °F 30.7 °F 30.2 °F 81% 29.88 in 10.0 mi West 5.8 mph - N/A   Mostly Cloudy
8:35 AM 37.4 °F 31.4 °F 30.2 °F 75% 29.90 in 10.0 mi West 8.1 mph - N/A   Mostly Cloudy
8:55 AM 37.4 °F 31.4 °F 30.2 °F 75% 29.91 in 10.0 mi West 8.1 mph - N/A   Mostly Cloudy
9:15 AM 35.6 °F 28.6 °F 28.4 °F 75% 29.93 in 10.0 mi WNW 9.2 mph - N/A   Mostly Cloudy
9:35 AM 37.4 °F 30.3 °F 30.2 °F 75% 29.94 in 10.0 mi West 10.4 mph - N/A   Mostly Cloudy
9:55 AM 37.4 °F 30.3 °F 30.2 °F 75% 29.95 in 10.0 mi West 10.4 mph 16.1 mph N/A   Mostly Cloudy
10:15 AM 37.4 °F 30.8 °F 28.4 °F 70% 29.95 in 10.0 mi West 9.2 mph - N/A   Overcast
10:35 AM 37.4 °F 30.8 °F 26.6 °F 65% 29.96 in 10.0 mi WNW 9.2 mph - N/A   Overcast
10:55 AM 37.4 °F 29.3 °F 26.6 °F 65% 29.97 in 10.0 mi WNW 12.7 mph 19.6 mph N/A   Mostly Cloudy
11:15 AM 39.2 °F 32.5 °F 24.8 °F 56% 29.96 in 10.0 mi WNW 10.4 mph 19.6 mph N/A   Partly Cloudy
11:35 AM 39.2 °F 32.5 °F 23.0 °F 52% 29.95 in 10.0 mi West 10.4 mph 19.6 mph N/A   Clear
11:55 AM 39.2 °F 31.6 °F 21.2 °F 49% 29.95 in 10.0 mi West 12.7 mph - N/A   Clear
12:15 PM 39.2 °F 31.2 °F 19.4 °F 45% 29.95 in 10.0 mi West 13.8 mph 20.7 mph N/A   Partly Cloudy
12:35 PM 39.2 °F 31.6 °F 19.4 °F 45% 29.94 in 10.0 mi West 12.7 mph 18.4 mph N/A   Clear
12:55 PM 39.2 °F 30.8 °F 17.6 °F 42% 29.94 in 10.0 mi WSW 15.0 mph 24.2 mph N/A   Partly Cloudy
1:15 PM 39.2 °F 29.8 °F 17.6 °F 42% 29.93 in 10.0 mi WSW 18.4 mph 25.3 mph N/A   Mostly Cloudy
1:35 PM 39.2 °F 31.2 °F 17.6 °F 42% 29.92 in 10.0 mi WSW 13.8 mph 25.3 mph N/A   Partly Cloudy
1:55 PM 39.2 °F 31.2 °F 17.6 °F 42% 29.93 in 10.0 mi West 13.8 mph 21.9 mph N/A   Scattered Clouds
2:15 PM 39.2 °F 30.5 °F 15.8 °F 39% 29.93 in 10.0 mi West 16.1 mph 24.2 mph N/A   Partly Cloudy
2:35 PM 37.4 °F 27.5 °F 15.8 °F 41% 29.94 in 10.0 mi West 18.4 mph 23.0 mph N/A   Clear
2:55 PM 37.4 °F 28.2 °F 14.0 °F 38% 29.95 in 10.0 mi West 16.1 mph 19.6 mph N/A   Clear
3:15 PM 37.4 °F 29.3 °F 14.0 °F 38% 29.96 in 10.0 mi West 12.7 mph 21.9 mph N/A   Clear
3:35 PM 37.4 °F 29.3 °F 14.0 °F 38% 29.97 in 10.0 mi West 12.7 mph 23.0 mph N/A   Clear
3:55 PM 37.4 °F 29.8 °F 12.2 °F 36% 29.98 in 10.0 mi WNW 11.5 mph 20.7 mph N/A   Clear
4:15 PM 35.6 °F 27.1 °F 12.2 °F 38% 29.98 in 10.0 mi West 12.7 mph 16.1 mph N/A   Clear
4:35 PM 35.6 °F 28.0 °F 12.2 °F 38% 29.98 in 10.0 mi WNW 10.4 mph 18.4 mph N/A   Clear
4:55 PM 33.8 °F 27.0 °F 10.4 °F 38% 29.99 in 10.0 mi West 8.1 mph - N/A   Clear
5:15 PM 33.8 °F 28.6 °F 10.4 °F 38% 30.00 in 10.0 mi West 5.8 mph - N/A   Clear
5:35 PM 32.0 °F 26.4 °F 10.4 °F 41% 30.02 in 10.0 mi West 5.8 mph - N/A   Clear
5:55 PM 32.0 °F 24.8 °F 12.2 °F 44% 30.02 in 10.0 mi West 8.1 mph - N/A   Clear
6:15 PM 32.0 °F 24.8 °F 10.4 °F 41% 30.02 in 10.0 mi West 8.1 mph - N/A   Clear
6:35 PM 30.2 °F 23.4 °F 10.4 °F 44% 30.03 in 10.0 mi West 6.9 mph - N/A   Clear
6:55 PM 30.2 °F 25.4 °F 12.2 °F 47% 30.03 in 10.0 mi West 4.6 mph - N/A   Clear
7:15 PM 28.4 °F 23.3 °F 12.2 °F 51% 30.05 in 10.0 mi WSW 4.6 mph - N/A   Clear
7:35 PM 28.4 °F 24.6 °F 12.2 °F 51% 30.06 in 10.0 mi WSW 3.5 mph - N/A   Clear
7:55 PM 28.4 °F 24.6 °F 12.2 °F 51% 30.06 in 10.0 mi WSW 3.5 mph - N/A   Clear
8:15 PM 24.8 °F 20.5 °F 12.2 °F 59% 30.06 in 10.0 mi WSW 3.5 mph - N/A   Clear
8:35 PM 24.8 °F - 15.8 °F 69% 30.06 in 10.0 mi Calm Calm - N/A   Clear
8:55 PM 23.0 °F - 15.8 °F 74% 30.06 in 10.0 mi Calm Calm - N/A   Clear
9:15 PM 23.0 °F - 15.8 °F 74% 30.06 in 10.0 mi Calm Calm - N/A   Clear
9:35 PM 21.2 °F - 15.8 °F 80% 30.06 in 10.0 mi Calm Calm - N/A   Clear
9:55 PM 21.2 °F - 15.8 °F 80% 30.06 in 10.0 mi Calm Calm - N/A   Clear
10:15 PM 21.2 °F - 15.8 °F 80% 30.06 in 10.0 mi Calm Calm - N/A   Clear
10:35 PM 21.2 °F - 17.6 °F 86% 30.06 in 10.0 mi Calm Calm - N/A   Clear
10:55 PM 24.8 °F - 17.6 °F 74% 30.05 in 10.0 mi Calm Calm - N/A   Clear
11:15 PM 21.2 °F - 12.2 °F 68% 30.05 in 10.0 mi Calm Calm - N/A   Clear
11:35 PM 19.4 °F - 15.8 °F 86% 30.04 in 10.0 mi Calm Calm - N/A   Clear
11:55 PM 21.2 °F - 15.8 °F 80% 30.04 in 10.0 mi Calm Calm - N/A   Clear